Regional Weather Roundup
Issued by NWS

Home | Current Version | Previous Version | Graphics & Text | Print | Product List | Glossary On
Versions: 1 2 3 4 5 6 7 8 9 10 11 12 13 14 15 16 17 18 19 20 21 22 23 24 25 26 27 28 29 30 31 32 33 34 35 36 37 38 39 40 41 42 43 44 45 46 47 48 49 50
000
ASUS43 KDMX 270407
RWRIA

WEATHER ROUNDUP FOR IOWA
NATIONAL WEATHER SERVICE DES MOINES IA
1000 PM CST WED NOV 26 2014

NOTE: "FAIR" INDICATES FEW OR NO CLOUDS BELOW 12,000 FEET WITH NO
SIGNIFICANT WEATHER AND/OR OBSTRUCTIONS TO VISIBILITY.

* - THESE STATIONS ARE NOT NWS STATIONS...THUS NOT UNDER NWS
QUALITY CONTROL.  THEY ALSO DO NOT REPORT WEATHER SUCH
AS PRECIPITATION OR FOG.

IAZ001>003-012>014-020>022-031>034-043>046-270500-
   NORTHWEST IOWA

CITY           SKY/WX    TMP DP  RH WIND       PRES   REMARKS
CARROLL *      CLOUDY    19  16  86 NW14G21   30.37R WCI   6
CHEROKEE *     CLOUDY    12   9  85 N5        30.42R WCI   4
DENISON *      CLOUDY    19  16  86 NW14G20   30.39R WCI   6
LE MARS *      CLOUDY    12   9  85 CALM      30.44R
ORANGE CITY *  CLOUDY    16   3  57 N8        30.40R WCI   5
SHELDON *      CLOUDY    12   3  67 N15       30.39R WCI  -4
SIOUX CITY     CLOUDY    17  11  77 NW10      30.45R WCI   5
SPENCER        CLOUDY    12   4  70 N14       30.39R WCI  -3
STORM LAKE *   CLOUDY    12   9  85 NW12      30.39R WCI  -2
$$

IAZ055>058-069>071-079>083-090>094-270500-
   SOUTHWEST IOWA

CITY           SKY/WX    TMP DP  RH WIND       PRES   REMARKS
ATLANTIC *     CLOUDY    23  19  86 NW12G17   30.39R WCI  12
AUDUBON *      CLEAR     21  16  79 NW9       30.37R WCI  11
CLARINDA *     CLOUDY    25  21  86 N15G22    30.41R WCI  12
COUNCIL BLFS * CLOUDY    23  19  86 NW13      30.39R WCI  11
CRESTON *      CLOUDY    23  21  93 N16G23    30.34R WCI  10
HARLAN  *      CLOUDY    21  19  93 NW12      30.43R WCI   9
LAMONI         CLOUDY    26  22  84 N18       30.31R WCI  13
RED OAK *      CLOUDY    25  21  86 NW16      30.40R WCI  12
SHENANDOAH *   CLOUDY    25  21  86 NW14G20   30.42R WCI  13
$$

IAZ047>049-059>061-072>074-084-270500-
   CENTRAL IOWA

CITY           SKY/WX    TMP DP  RH WIND       PRES   REMARKS
AMES           CLOUDY    21  17  84 N20G25    30.33R WCI   6
ANKENY *       CLOUDY    25  21  86 NW16G25   30.33R WCI  12
CHARITON *     CLOUDY    27  25  93 NW18      30.31R WCI  13
DES MOINES     FLURRIES  24  20  84 NW13      30.33R WCI  12
GRINNELL*      LGT SNOW  27  25  93 NW9       30.29R WCI  17
KNOXVILLE *    CLOUDY    28  25  86 NW12G18   30.29R WCI  18
MARSHALLTOWN   CLOUDY    26  22  84 N13       30.29R WCI  15
PELLA *        LGT SNOW  28  27  93 N12G17    30.31R WCI  18
PERRY *        CLOUDY    21  19  93 N20G25    30.36R WCI   6
$$

IAZ004>006-015-016-023>025-035-036-270500-
   NORTH CENTRAL IOWA

CITY           SKY/WX    TMP DP  RH WIND       PRES   REMARKS
ALGONA *       CLOUDY    14   9  79 N17       30.36R WCI  -3
CLARION *      FLURRIES  16  14  93 N16G23    30.34R WCI   0
ESTHERVILLE    CLOUDY     9   5  84 NW18      30.37R WCI -10
FORT DODGE *   CLOUDY    18  12  79 NW8G16    30.36S WCI   7
MASON CITY     CLOUDY    17  13  84 NW20      30.33R WCI   1
FOREST CITY *  CLOUDY    14  12  92 NW17      30.33R WCI  -3
IOWA FALLS *   CLOUDY    21  18  86 NW23      30.32R WCI   5
$$

IAZ007>011-017>019-026>030-037>042-050>054-066-270500-
   NORTHEAST IOWA

CITY           SKY/WX    TMP DP  RH WIND       PRES   REMARKS
CEDAR RAPIDS   LGT SNOW  25  24  96 N7        30.25R FOG     WCI  17
CHARLES CITY * CLOUDY    23  19  86 N14G21    30.28R WCI  11
CLINTON *      CLOUDY    21  16  79 N3        30.26R
DECORAH *      CLOUDY    23  21  93 NW8       30.24R WCI  14
DUBUQUE        CLOUDY    22  20  92 N8        30.22R WCI  12
MONTICELLO *   MIX PCPN  25  23  93 NW7       30.24R WCI  17
OELWEIN *      CLOUDY    25  21  86 NW8       30.27R WCI  16
WATERLOO       CLOUDY    24  22  91 NW8       30.28R WCI  15
$$

IAZ064-065-067-068-078-270500-
   EAST CENTRAL IOWA

CITY           SKY/WX    TMP DP  RH WIND       PRES   REMARKS
DAVENPORT      PTCLDY    24  18  77 N6        30.24R WCI  17
IOWA CITY      CLOUDY    27  24  89 N9        30.27R WCI  18
MT. PLEASANT * LGT SNOW  27  25  93 N6        30.25R WCI  20
MUSCATINE *    CLOUDY    28  25  86 N5        30.27R WCI  23
QUAD CITIES    CLOUDY    27  20  75 N3        30.24R
$$

IAZ062-063-075>077-085>089-095>099-270500-
   SOUTHEAST IOWA

CITY           SKY/WX    TMP DP  RH WIND       PRES   REMARKS
BURLINGTON     CLOUDY    27  24  89 N12       30.24R FOG     WCI  17
FAIRFIELD *    LGT SNOW  27  25  93 NW7       30.27R WCI  19
FORT MADISON * CLOUDY    28  27  93 N9        30.25R FOG     WCI  20
KEOKUK *       CLOUDY    30  27  86 N9        30.24R WCI  22
OSKALOOSA *    LGT SNOW  27  25  93 N8        30.29R WCI  18
CENTERVILLE *  FLURRIES  28  28 100 N7        30.29R WCI  21
OTTUMWA        CLOUDY    27  24  89 N8        30.28R FOG     WCI  19
WASHINGTON *   CLOUDY    27  27 100 N8        30.26R FOG     WCI  18
$$

ABBREVIATIONS USED IN REMARKS
   TC - TEMPERATURES IN CELSIUS
  WCI - WIND CHILL INDEX
   HX - HEAT INDEX
  VSB - VISIBILITY
$$




USA.gov is the U.S. government's official web portal to all federal, state and local government web resources and services.